Wetterdaten: aktuell Mittwoch, 01.04.2020 03:45
Datum Zeit Temp. A. Feuchte A. Luftdruck Regen Wind Taupunkt Windchill Windben
01.04.2020 03:45 -4,7 C 56 % 1026,0 hPa 0,0 l/m 0,0 km/h (0 Bft) -12,1 C -4,7 C 0,0 km/h (0 Bft)
01.04.2020 03:40 -4,6 C 56 % 1026,0 hPa 0,0 l/m 0,0 km/h (0 Bft) -12,0 C -4,6 C 0,0 km/h (0 Bft)
01.04.2020 03:35 -4,4 C 56 % 1026,1 hPa 0,0 l/m 0,0 km/h (0 Bft) -11,8 C -4,4 C 0,0 km/h (0 Bft)
01.04.2020 03:30 -4,4 C 56 % 1026,2 hPa 0,0 l/m 0,8 km/h (0 Bft) -11,8 C -4,4 C 3,2 km/h (1 Bft)
01.04.2020 03:25 -4,3 C 56 % 1026,1 hPa 0,0 l/m 0,4 km/h (0 Bft) -11,7 C -4,3 C 3,2 km/h (1 Bft)
01.04.2020 03:20 -4,2 C 56 % 1026,1 hPa 0,0 l/m 1,3 km/h (1 Bft) -11,6 C -4,2 C 3,2 km/h (1 Bft)
01.04.2020 03:15 -4,2 C 55 % 1026,2 hPa 0,0 l/m 1,3 km/h (1 Bft) -11,9 C -4,2 C 3,2 km/h (1 Bft)
01.04.2020 03:10 -4,1 C 55 % 1026,3 hPa 0,0 l/m 1,1 km/h (1 Bft) -11,8 C -4,1 C 3,2 km/h (1 Bft)
01.04.2020 03:05 -4,0 C 55 % 1026,3 hPa 0,0 l/m 1,0 km/h (0 Bft) -11,7 C -4,0 C 3,2 km/h (1 Bft)
01.04.2020 03:00 -3,9 C 55 % 1026,4 hPa 0,0 l/m 0,5 km/h (0 Bft) -11,6 C -3,9 C 1,6 km/h (1 Bft)
01.04.2020 02:55 -3,9 C 54 % 1026,5 hPa 0,0 l/m 0,8 km/h (0 Bft) -11,8 C -3,9 C 1,6 km/h (1 Bft)
01.04.2020 02:50 -3,8 C 55 % 1026,5 hPa 0,0 l/m 1,0 km/h (0 Bft) -11,5 C -3,8 C 1,6 km/h (1 Bft)
01.04.2020 02:45 -3,8 C 54 % 1026,6 hPa 0,0 l/m 2,3 km/h (1 Bft) -11,7 C -3,8 C 3,2 km/h (1 Bft)
01.04.2020 02:40 -3,7 C 54 % 1026,6 hPa 0,0 l/m 2,7 km/h (1 Bft) -11,6 C -3,7 C 3,2 km/h (1 Bft)
01.04.2020 02:35 -3,7 C 54 % 1026,6 hPa 0,0 l/m 2,2 km/h (1 Bft) -11,6 C -3,7 C 3,2 km/h (1 Bft)
01.04.2020 02:30 -3,6 C 53 % 1026,7 hPa 0,0 l/m 2,1 km/h (1 Bft) -11,8 C -3,6 C 3,2 km/h (1 Bft)
01.04.2020 02:25 -3,7 C 53 % 1026,8 hPa 0,0 l/m 2,2 km/h (1 Bft) -11,9 C -3,7 C 3,2 km/h (1 Bft)
01.04.2020 02:20 -3,6 C 53 % 1026,9 hPa 0,0 l/m 2,6 km/h (1 Bft) -11,8 C -3,6 C 3,2 km/h (1 Bft)
01.04.2020 02:15 -3,7 C 53 % 1026,8 hPa 0,0 l/m 2,3 km/h (1 Bft) -11,9 C -3,7 C 4,8 km/h (1 Bft)
01.04.2020 02:10 -3,6 C 53 % 1026,9 hPa 0,0 l/m 2,0 km/h (1 Bft) -11,8 C -3,6 C 3,2 km/h (1 Bft)
01.04.2020 02:05 -3,6 C 53 % 1026,9 hPa 0,0 l/m 1,6 km/h (1 Bft) -11,8 C -3,6 C 3,2 km/h (1 Bft)
_ Min-Zeit 03:45 00:00 03:40 - 01:00 03:45 03:45 01:00
Minimum _ -4,7 C 49 % 1026,0 hPa - 0,0 km/h (0 Bft) -12,1 C -4,7 C 0,0 km/h (0 Bft)
_ Max-Zeit 00:00 03:20 00:00 00:00 00:10 00:15 00:00 00:10
Maximum _ -1,7 C 56 % 1027,9 hPa 0,0 l/m 3,2 km/h
NW (1 Bft)
-10,9 C -1,8 C 4,8 km/h
N (1 Bft)
Durchschnitt _ -3,3 C 53 % 1027,0 hPa #0,0 l/m 1,2 km/h (1 Bft) -11,6 C -3,3 C 2,6 km/h (1 Bft)